Location: Gerlach
(40.6516°N, 119.3568°W)
Time: 14:50:50
(UTC-08:00)

A-11 Canister half - Visible Passes

Search period start: 20 February 2024 00:00
Search period end: 01 March 2024 00:00
Orbit: 1526 x 1682 km, 47.3° (Epoch: 20 February)

Date Brightness Start Highest point End Pass type
(mag) Time Alt. Az. Time Alt. Az. Time Alt. Az.
20 Feb 9.6 02:45:38 48° E 02:45:38 48° E 02:52:04 10° ESE visible
20 Feb 9.0 04:43:57 37° W 04:47:37 56° SW 04:56:47 10° SE visible
20 Feb 9.9 19:57:21 10° S 20:02:37 26° SSE 20:02:37 26° SSE visible
20 Feb 10.9 21:59:51 10° SW 22:00:59 14° SW 22:00:59 14° SW visible
21 Feb 10.0 02:25:27 34° E 02:25:27 34° E 02:30:16 10° E visible
21 Feb 8.9 04:23:46 49° W 04:25:54 59° SW 04:35:06 10° SE visible
21 Feb 9.7 19:35:50 10° S 19:42:56 28° SE 19:42:56 28° SE visible
21 Feb 10.4 21:38:07 10° SW 21:41:18 24° SW 21:41:18 24° SW visible
22 Feb 10.5 02:05:20 24° E 02:05:20 24° E 02:08:28 10° E visible
22 Feb 8.8 04:03:39 61° SW 04:04:12 62° SW 04:13:26 10° SE visible
22 Feb 10.2 06:02:15 10° W 06:07:46 17° SW 06:13:22 10° SSW visible
22 Feb 9.7 19:14:21 10° S 19:21:53 27° SE 19:23:14 26° ESE visible
22 Feb 9.8 21:16:22 10° SW 21:21:36 38° SW 21:21:36 38° SW visible
23 Feb 10.9 01:45:18 15° E 01:45:18 15° E 01:46:41 10° E visible
23 Feb 9.0 03:43:38 60° S 03:43:38 60° S 03:51:45 10° SE visible
23 Feb 10.2 05:41:58 14° W 05:46:07 19° SW 05:52:05 10° SSW visible
23 Feb 9.9 18:52:53 10° S 19:00:13 25° SE 19:03:31 21° E visible
23 Feb 9.2 20:54:39 10° SW 21:01:52 56° SW 21:01:52 56° SW visible
24 Feb 9.4 03:23:42 47° SSE 03:23:42 47° SSE 03:30:03 10° SE visible
24 Feb 10.0 05:22:02 18° WSW 05:24:29 20° SW 05:30:45 10° S visible
24 Feb 10.0 18:31:27 10° S 18:38:33 24° SE 18:43:43 15° E visible
24 Feb 8.8 20:32:55 10° SW 20:42:04 73° SSE 20:42:04 73° SSE visible
24 Feb 10.8 22:38:25 10° W 22:40:25 18° W 22:40:25 18° W visible
25 Feb 9.9 03:03:51 33° SE 03:03:51 33° SE 03:08:22 10° SE visible
25 Feb 9.9 05:02:11 21° WSW 05:02:49 21° SW 05:09:23 10° S visible
25 Feb 10.1 18:10:01 10° S 18:16:53 22° SE 18:23:37 10° E visible
25 Feb 8.8 20:11:13 10° SW 20:20:43 71° SE 20:22:12 62° E visible
25 Feb 10.3 22:16:36 10° W 22:20:33 28° W 22:20:33 28° W visible
26 Feb 10.4 02:44:03 21° SE 02:44:03 21° SE 02:46:40 10° SE visible
26 Feb 10.0 04:42:24 22° SW 04:42:24 22° SW 04:48:00 10° S visible
26 Feb 8.9 19:49:29 10° SW 19:59:00 68° SE 20:02:16 44° E visible
26 Feb 9.8 21:54:48 10° W 22:00:36 41° WNW 22:00:36 41° WNW visible
27 Feb 10.9 02:24:19 13° SE 02:24:19 13° SE 02:24:58 10° SE visible
27 Feb 10.2 04:22:41 20° SSW 04:22:41 20° SSW 04:26:35 10° S visible
27 Feb 9.0 19:27:47 10° SW 19:37:16 65° SE 19:42:15 31° ENE visible
27 Feb 9.4 21:32:59 10° W 21:40:35 56° WNW 21:40:35 56° WNW visible
28 Feb 10.4 04:02:59 16° S 04:02:59 16° S 04:05:08 10° S visible
28 Feb 9.0 19:06:05 10° SW 19:15:34 63° SE 19:22:09 21° ENE visible
28 Feb 9.1 21:11:10 10° W 21:20:28 67° NNW 21:20:28 67° NNW visible
28 Feb 10.9 23:17:25 10° WNW 23:18:48 15° WNW 23:18:48 15° WNW visible
29 Feb 10.8 03:43:18 11° S 03:43:18 11° S 03:43:40 10° S visible
29 Feb 9.1 18:44:23 10° SW 18:53:51 60° SE 19:01:58 14° ENE visible
29 Feb 9.0 20:49:21 10° W 20:58:53 68° NNW 21:00:17 62° NNE visible
29 Feb 10.6 22:55:38 10° WNW 22:58:36 23° WNW 22:58:36 23° WNW visible
